FENGYUN 1C DEB

Satellite information

Favourite Embed

Satellite Type and Status

DEBRISIN ORBIT

Key statistics

Satellite FENGYUN 1C DEB at a glance.

Uptime

9617

Days in orbit

Revolutions

≈ 14.0

Per day

Orbit

SSO

Sun Synchronous Orbit

Inclination

98.9

Latest

Satellite identification and parameters

Extended collection of information and parameters for FENGYUN 1C DEB.

Object identification

Identified? True

Debris? True

Object name: FENGYUN 1C DEB

International designator: 1999-025EZS

Object number (NORAD): 46992

Object ID (CCSDS): 46992

Country: PEOPLES REPUBLIC OF CHINA (PRC)

Current information (Y/N): Y

RCS size: SMALL

Orbital parameters

Period: 102.818 minutes

Inclination: 98.8766 deg

SMA: 7270.097 km

Apoapsis: 944.584 km

Periapsis: 839.339 km

RAAN: 235.7576 deg

Eccentricy: 0.00723819

Argument of periapsis: 79.3304 deg

Mean anomaly: 281.6002 deg

Mean motion: 14.00530235 rev/day

Mean motion (dot): 0.00000753 rev/day2

B* drag term: 0.00052317801 1/REarth

Two-line elements (TLE)

Creation date: Sept. 3, 2025, 10:15 a.m.

Reference frame: TEME

Reference center: EARTH

Epoch: Sept. 3, 2025, 5:56 a.m. UTC

TLE line 0: 0 FENGYUN 1C DEB

TLE line 1: 1 46992U 99025EZS 25246.24749444 .00000753 00000-0 52318-3 0 9999

TLE line 2: 2 46992 98.8766 235.7576 0072382 79.3304 281.6002 14.00530235595505

Live tracking on map

Real-time ground track for satellite FENGYUN 1C DEB.

In-orbit conjunctions

A list of the most updated potential collisions computed for object FENGYUN 1C DEB.

Target Orbit TCA Probability of collision Miss distance Type
TRANSIT 4B LEO 2024-07-12 07:42:50 0.0002579065 333.0 (m) PAYLOAD

Associated space launch

Chinese polar orbiting meteorological satellite

FENGYUN 1C DEB was lifted into orbit during the mission ‘Long March 4B | Feng Yun 1C’, on board a Long March 4B space rocket.

The launch took place on May 10, 1999, 1:33 a.m. from Launch Complex 7.

For more information about the launch, click the button.

Launch to space Long March 4B | Feng Yun 1C
Long March 4B | Feng Yun 1C

Agency: N/A

Status: Launch Successful

Launch date: May 10, 1999, 1:33 a.m. UTC

Rocket: Long March 4B

Launch pad: Launch Complex 7

Location: Taiyuan Satellite Launch Center, People's Republic of China

...

Latest news about this satellite

There are no fresh news available about this satellite. Check back as we update our databases every day.


Newsletter sign-up

Weekly statistics, charts and insights to help you stay on top of the space industry.